Zurück zum Katalog

ONEWEB-0698

AktivKommunikationPO
NORAD 61604·PAYLOAD·🇬🇧 United Kingdom

Gestartet Oct 20, 2024 von Vandenberg Space Force Base

Loading…

Nächste Überflüge (nächste 24 Stunden)

TLE

AktuellSource: CelesTrak SupGP

Epoche: Sep 14, 2026, 15:29 UTC

1 61604C 24188L   26257.64564074  .00002081  00000+0  58793-2 0  2579
2 61604  87.8960   3.2929 0001859  66.4990  42.9844 13.11409749    10

Verfolge ONEWEB-0698 in Echtzeit mit AllMySat

Download on the App Store